Date String (YYYY-MM-DD hh:mm:ss) UTC,Instrument flags,absolute air pressure of the measurement (hPa),sample flow rate (lpm),inlet stack bypass flow (lpm),air temperature of the measurement (°C),ambient temperature measured by the external sensor (°C),aerosol sample conditioner tube jacket temperature (°C),OPC LED temperature (°C),internal box temperature (°C),relative humidity of the measurement (%),span deviation,mass concentration of particles derived from Lorenz-Mie calculation of OPC scattering (μg/m³),mass concentration of particles derived from Lorenz-Mie calculation of OPC scattering (μg/m³),mass concentration of particles derived from Lorenz-Mie calculation of OPC scattering (μg/m³)
DateTimeUTC,F1_M11,P_M11,Q1_M11,Q2_M11,T1_M11,T2_M11,T3_M11,T4_M11,T5_M11,U1_M11,ZSPAN_M11,X2_M11,X0_M11,X1_M11
2023-05-31 05:00:00,SystemResetWarning,0828.1,4.99,000.00,029.6,028.1,000.0,038.0,031.2,19.8,0000.0,0004.17,0015.46,0002.61
2023-05-31 05:01:00,SystemResetWarning,0828.1,4.99,000.00,029.6,028.1,000.0,038.0,031.2,19.8,0000.0,0004.20,0015.71,0002.61
2023-05-31 05:02:00,SystemResetWarning,0828.0,4.99,000.00,029.6,028.1,000.0,038.0,031.2,19.8,0000.0,0004.17,0015.01,0002.60
2023-05-31 05:03:00,SystemResetWarning,0828.1,5.00,000.00,029.6,028.1,000.0,038.0,031.2,19.8,0000.0,0004.13,0016.33,0002.59
2023-05-31 05:04:00,SystemResetWarning,0828.1,5.01,000.00,029.7,028.1,000.0,038.0,031.2,19.9,0000.0,0004.10,0017.64,0002.58
2023-05-31 05:05:00,SystemResetWarning,0828.2,5.01,000.00,029.7,028.1,000.0,038.0,031.2,19.9,0000.0,0004.14,0017.01,0002.55
2023-05-31 05:06:00,SystemResetWarning,0828.2,5.00,000.00,029.7,028.1,000.0,038.0,031.2,20.0,0000.0,0004.13,0016.71,0002.54
2023-05-31 05:07:00,SystemResetWarning,0828.2,5.00,000.00,029.7,028.1,000.0,038.0,031.2,20.1,0000.0,0004.09,0016.45,0002.53
2023-05-31 05:08:00,SystemResetWarning,0828.2,4.99,000.00,029.7,028.1,000.0,038.0,031.3,20.2,0000.0,0004.07,0016.60,0002.53
2023-05-31 05:09:00,SystemResetWarning,0828.2,4.99,000.00,029.7,028.1,000.0,038.0,031.3,20.2,0000.0,0004.08,0016.08,0002.52
2023-05-31 05:10:00,SystemResetWarning,0828.3,4.99,000.00,029.7,028.1,000.0,038.0,031.3,20.2,0000.0,0004.11,0015.18,0002.50
2023-05-31 05:11:00,SystemResetWarning,0828.3,5.00,000.00,029.7,028.1,000.0,038.0,031.3,20.2,0000.0,0004.09,0014.84,0002.49
2023-05-31 05:12:00,SystemResetWarning,0828.3,5.00,000.00,029.7,028.1,000.0,038.0,031.3,20.1,0000.0,0004.06,0014.81,0002.49
2023-05-31 05:13:00,SystemResetWarning,0828.4,5.01,000.00,029.7,028.1,000.0,038.0,031.3,20.1,0000.0,0004.07,0015.83,0002.49
2023-05-31 05:14:00,SystemResetWarning,0828.3,5.01,000.00,029.7,028.1,000.0,038.0,031.3,20.1,0000.0,0004.09,0014.85,0002.49
2023-05-31 05:15:00,SystemResetWarning,0828.3,5.00,000.00,029.7,028.2,000.0,038.0,031.3,20.0,0000.0,0004.10,0013.36,0002.48
2023-05-31 05:16:00,SystemResetWarning,0828.4,5.00,000.00,029.7,028.2,000.0,038.1,031.3,20.1,0000.0,0004.06,0012.98,0002.48
2023-05-31 05:17:00,SystemResetWarning,0828.4,4.99,000.00,029.7,028.2,000.0,038.1,031.3,20.2,0000.0,0004.03,0012.94,0002.51
2023-05-31 05:18:00,SystemResetWarning,0828.4,4.99,000.00,029.7,028.2,000.0,038.1,031.3,20.1,0000.0,0004.09,0012.91,0002.53
2023-05-31 05:19:00,SystemResetWarning,0828.4,5.01,000.00,029.7,028.2,000.0,038.1,031.3,20.1,0000.0,0004.12,0012.51,0002.52
2023-05-31 05:20:00,SystemResetWarning,0828.4,5.01,000.00,029.7,028.2,000.0,038.1,031.3,20.1,0000.0,0004.15,0013.09,0002.51
2023-05-31 05:21:00,SystemResetWarning,0828.5,5.00,000.00,029.7,028.2,000.0,038.1,031.3,20.1,0000.0,0004.09,0012.87,0002.49
2023-05-31 05:22:00,SystemResetWarning,0828.5,4.98,000.00,029.7,028.2,000.0,038.1,031.3,20.0,0000.0,0004.08,0012.66,0002.48
2023-05-31 05:23:00,SystemResetWarning,0828.6,5.01,000.00,029.8,028.2,000.0,038.1,031.3,20.0,0000.0,0004.08,0012.32,0002.47
2023-05-31 05:24:00,SystemResetWarning,0828.6,5.01,000.00,029.8,028.2,000.0,038.1,031.3,20.0,0000.0,0004.01,0011.38,0002.45
2023-05-31 05:25:00,SystemResetWarning,0828.6,4.99,000.00,029.8,028.2,000.0,038.1,031.3,20.1,0000.0,0003.97,0011.28,0002.44
2023-05-31 05:26:00,SystemResetWarning,0828.7,4.99,000.00,029.8,028.2,000.0,038.1,031.3,20.1,0000.0,0003.96,0010.59,0002.45
2023-05-31 05:27:00,SystemResetWarning,0828.7,5.00,000.00,029.8,028.3,000.0,038.1,031.4,20.0,0000.0,0003.93,0010.74,0002.46
2023-05-31 05:28:00,SystemResetWarning,0828.8,5.01,000.00,029.8,028.3,000.0,038.1,031.4,20.0,0000.0,0003.95,0011.32,0002.42
2023-05-31 05:29:00,SystemResetWarning,0828.9,5.01,000.00,029.8,028.3,000.0,038.1,031.4,19.9,0000.0,0003.92,0011.42,0002.39
2023-05-31 05:30:00,SystemResetWarning,0828.9,5.00,000.00,029.8,028.3,000.0,038.1,031.4,19.9,0000.0,0003.96,0012.52,0002.38
2023-05-31 05:31:00,SystemResetWarning,0829.0,4.99,000.00,029.8,028.3,000.0,038.1,031.4,20.0,0000.0,0003.91,0012.01,0002.38
2023-05-31 05:32:00,SystemResetWarning,0829.0,5.01,000.00,029.8,028.3,000.0,038.1,031.4,20.0,0000.0,0003.93,0012.07,0002.39
2023-05-31 05:33:00,SystemResetWarning,0829.0,5.01,000.00,029.8,028.3,000.0,038.2,031.4,20.1,0000.0,0003.95,0012.28,0002.39
2023-05-31 05:34:00,SystemResetWarning,0829.0,5.00,000.00,029.8,028.3,000.0,038.2,031.4,20.1,0000.0,0003.90,0012.44,0002.39
2023-05-31 05:35:00,SystemResetWarning,0829.1,4.99,000.00,029.8,028.3,000.0,038.2,031.4,20.2,0000.0,0003.89,0012.17,0002.38
2023-05-31 05:36:00,SystemResetWarning,0829.1,5.00,000.00,029.8,028.3,000.0,038.2,031.4,20.2,0000.0,0003.87,0012.15,0002.37
2023-05-31 05:37:00,SystemResetWarning,0829.1,5.00,000.00,029.8,028.3,000.0,038.2,031.4,20.1,0000.0,0003.82,0011.88,0002.35
2023-05-31 05:38:00,SystemResetWarning,0829.1,5.00,000.00,029.8,028.3,000.0,038.2,031.4,20.1,0000.0,0003.81,0011.69,0002.34
2023-05-31 05:39:00,SystemResetWarning,0829.2,5.00,000.00,029.8,028.3,000.0,038.2,031.4,20.1,0000.0,0003.79,0011.45,0002.35
2023-05-31 05:40:00,SystemResetWarning,0829.2,5.00,000.00,029.9,028.3,000.0,038.2,031.4,20.1,0000.0,0003.71,0011.56,0002.34
2023-05-31 05:41:00,SystemResetWarning,0829.3,5.00,000.00,029.9,028.3,000.0,038.2,031.4,20.1,0000.0,0003.65,0010.37,0002.33
2023-05-31 05:42:00,SystemResetWarning,0829.3,5.00,000.00,029.9,028.3,000.0,038.2,031.4,20.0,0000.0,0003.62,0009.95,0002.31
2023-05-31 05:43:00,SystemResetWarning,0829.3,5.00,000.00,029.9,028.3,000.0,038.2,031.4,20.0,0000.0,0003.61,0010.13,0002.30
2023-05-31 05:44:00,SystemResetWarning,0829.4,5.00,000.00,029.9,028.3,000.0,038.2,031.4,20.0,0000.0,0003.61,0010.46,0002.29
2023-05-31 05:45:00,SystemResetWarning,0829.4,5.00,000.00,029.9,028.4,000.0,038.2,031.4,20.0,0000.0,0003.63,0017.01,0002.27
2023-05-31 05:46:00,SystemResetWarning,0829.4,5.00,000.00,029.9,028.4,000.0,038.2,031.4,19.9,0000.0,0003.71,0023.59,0002.28
2023-05-31 05:47:00,SystemResetWarning,0829.4,4.99,000.00,029.9,028.4,000.0,038.2,031.5,19.9,0000.0,0003.72,0023.55,0002.27
2023-05-31 05:48:00,SystemResetWarning,0829.4,5.00,000.00,029.9,028.4,000.0,038.2,031.5,19.9,0000.0,0003.76,0023.72,0002.25
2023-05-31 05:49:00,SystemResetWarning,0829.3,5.00,000.00,029.9,028.4,000.0,038.2,031.5,19.9,0000.0,0003.75,0023.82,0002.24
2023-05-31 05:50:00,SystemResetWarning,0829.3,5.00,000.00,029.9,028.4,000.0,038.2,031.5,19.9,0000.0,0003.71,0023.48,0002.23
2023-05-31 05:51:00,SystemResetWarning,0829.3,5.00,000.00,029.9,028.4,000.0,038.3,031.5,19.9,0000.0,0003.73,0023.20,0002.23
2023-05-31 05:52:00,SystemResetWarning,0829.3,5.00,000.00,029.9,028.4,000.0,038.3,031.5,19.9,0000.0,0003.69,0023.48,0002.23
2023-05-31 05:53:00,SystemResetWarning,0829.3,5.01,000.00,029.9,028.4,000.0,038.3,031.5,19.9,0000.0,0003.72,0024.70,0002.23
2023-05-31 05:54:00,SystemResetWarning,0829.3,5.00,000.00,029.9,028.4,000.0,038.3,031.5,19.9,0000.0,0003.74,0025.29,0002.21
2023-05-31 05:55:00,SystemResetWarning,0829.3,5.00,000.00,029.9,028.4,000.0,038.3,031.5,19.9,0000.0,0003.72,0024.84,0002.21
2023-05-31 05:56:00,SystemResetWarning,0829.4,4.99,000.00,029.9,028.4,000.0,038.3,031.5,19.9,0000.0,0003.68,0018.69,0002.21
2023-05-31 05:57:00,SystemResetWarning,0829.5,5.00,000.00,030.0,028.4,000.0,038.3,031.5,19.9,0000.0,0003.60,0012.02,0002.18
2023-05-31 05:58:00,SystemResetWarning,0829.6,5.00,000.00,030.0,028.4,000.0,038.3,031.5,19.9,0000.0,0003.60,0012.39,0002.18
2023-05-31 05:59:00,SystemResetWarning,0829.7,4.99,000.00,030.0,028.4,000.0,038.3,031.5,19.9,0000.0,0003.59,0013.81,0002.16
